TimeMDT,TemperatureF,Dew PointF,Humidity,Sea Level PressureIn,VisibilityMPH,Wind Direction,Wind SpeedMPH,Gust SpeedMPH,PrecipitationIn,Events,Conditions,WindDirDegrees,DateUTC
12:53 AM,33.1,10.9,40,29.95,10.0,NNE,4.6,-,N/A,,Clear,30,2012-10-09 06:53:00
2:53 AM,30.9,10.9,43,29.95,10.0,NE,3.5,-,N/A,,Clear,40,2012-10-09 08:53:00
3:53 AM,30.0,10.9,45,29.96,10.0,Calm,Calm,-,N/A,,Clear,0,2012-10-09 09:53:00
4:53 AM,33.1,12.9,43,29.95,10.0,ESE,5.8,-,N/A,,Clear,120,2012-10-09 10:53:00
5:53 AM,28.9,10.0,45,29.98,10.0,Calm,Calm,-,N/A,,Clear,0,2012-10-09 11:53:00
6:53 AM,23.0,10.0,58,30.05,10.0,Calm,Calm,-,N/A,,Clear,0,2012-10-09 12:53:00
7:53 AM,27.0,10.9,51,30.05,5.0,Calm,Calm,-,N/A,,Haze,0,2012-10-09 13:53:00
8:53 AM,37.9,15.1,39,30.02,6.0,Calm,Calm,-,N/A,,Haze,0,2012-10-09 14:53:00
9:06 AM,39.2,15.8,39,30.12,5.0,Calm,Calm,-,N/A,,Haze,0,2012-10-09 15:06:00
9:53 AM,46.0,16.0,30,30.01,9.0,Calm,Calm,-,N/A,,Clear,0,2012-10-09 15:53:00
10:53 AM,55.0,16.0,22,29.99,10.0,Calm,Calm,-,N/A,,Clear,0,2012-10-09 16:53:00
11:53 AM,64.0,19.9,18,29.96,10.0,West,11.5,18.4,N/A,,Clear,270,2012-10-09 17:53:00
12:53 PM,66.0,19.0,17,29.94,10.0,Calm,Calm,-,N/A,,Clear,0,2012-10-09 18:53:00
1:53 PM,66.9,18.0,15,29.92,10.0,NNW,8.1,20.7,N/A,,Clear,340,2012-10-09 19:53:00
2:53 PM,69.1,16.0,13,29.91,10.0,SW,12.7,19.6,N/A,,Clear,230,2012-10-09 20:53:00
3:53 PM,69.1,14.0,12,29.91,10.0,West,12.7,21.9,N/A,,Clear,260,2012-10-09 21:53:00
4:53 PM,68.0,12.9,12,29.90,10.0,WNW,9.2,-,N/A,,Clear,300,2012-10-09 22:53:00
5:35 PM,66.2,15.8,14,30.05,6.0,WNW,15.0,18.4,N/A,,Haze,300,2012-10-09 23:35:00
5:53 PM,66.0,16.0,15,29.94,5.0,NW,9.2,-,N/A,,Haze,310,2012-10-09 23:53:00
6:53 PM,62.1,16.0,17,29.99,10.0,WNW,6.9,-,N/A,,Clear,300,2012-10-10 00:53:00
7:53 PM,52.0,16.0,24,30.03,10.0,Calm,Calm,-,N/A,,Clear,0,2012-10-10 01:53:00
8:53 PM,45.0,18.0,34,30.04,10.0,Calm,Calm,-,N/A,,Clear,0,2012-10-10 02:53:00
9:53 PM,43.0,15.1,32,30.04,10.0,Calm,Calm,-,N/A,,Clear,0,2012-10-10 03:53:00
10:53 PM,41.0,15.1,35,30.02,10.0,Calm,Calm,-,N/A,,Clear,0,2012-10-10 04:53:00
11:53 PM,37.0,12.9,37,30.01,10.0,ENE,4.6,-,N/A,,Clear,60,2012-10-10 05:53:00